Terminal Aerodrome Forecast
Issued by NWS Topeka, KS

Home | Current Version | Previous Version | Graphics & Text | Print | Product List | Glossary On
Versions: 1 2 3 4 5 6 7 8 9 10 11 12 13 14 15 16 17 18 19 20 21 22 23 24
035
FTUS43 KTOP 141124
TAFTOP
TAF
KTOP 141124Z 1412/1512 16005KT 3SM -SN OVC030
      TEMPO 1412/1414 2SM -SN OVC025
     FM141400 17005KT P6SM BKN040
     FM142000 22005KT P6SM FEW040
     FM150400 25004KT 2SM -SN BKN030=

USA.gov is the U.S. government's official web portal to all federal, state and local government web resources and services.